W3EX Weather Reports


time (UTC)temp
F
wind
direction
speed
knots
gust
knots
rain 1hr
in
rain 24hr
in
rain mn
in
humidity
%
barometer
mb
20260505211624 81 188 5.2 12.2 0.00 0.00 0.00 33 1004.2
20260505210006 81 255 4.3 20.0 0.00 0.00 0.00 33 1004.3
20260505204602 80 355 5.2 17.4 0.00 0.00 0.00 32 1004.3
20260505203102 81 222 2.6 22.6 0.00 0.00 0.00 34 1004.4
20260505201502 82 297 4.3 11.3 0.00 0.00 0.00 33 1004.3
20260505194504 82 180 3.5 13.0 0.00 0.00 0.00 33 1004.7
20260505193102 81 247 5.2 14.8 0.00 0.00 0.00 31 1004.6
20260505191503 81 225 5.2 14.8 0.00 0.00 0.00 31 1004.8
20260505190119 81 243 3.5 16.5 0.00 0.00 0.00 31 1004.9
20260505184502 81 180 6.1 14.8 0.00 0.00 0.00 37 1005.0
20260505183102 81 210 6.1 15.6 0.00 0.00 0.00 33 1005.2
20260505181502 81 277 3.5 19.1 0.00 0.00 0.00 35 1005.4
20260505174504 81 240 4.3 15.6 0.00 0.00 0.00 36 1005.6
20260505173103 81 190 4.3 8.7 0.00 0.00 0.00 39 1005.7
20260505171506 80 44 1.7 13.0 0.00 0.00 0.00 40 1005.6
20260505170114 81 201 4.3 13.0 0.00 0.00 0.00 39 1005.9
20260505164502 80 195 5.2 9.6 0.00 0.00 0.00 40 1006.0
20260505163111 80 210 1.7 13.0 0.00 0.00 0.00 45 1006.1
20260505161502 79 190 3.5 9.6 0.00 0.00 0.00 41 1006.1
20260505160104 79 43 1.7 7.0 0.00 0.00 0.00 43 1006.3
20260505153111 78 232 1.7 8.7 0.00 0.00 0.00 44 1006.6
20260505151502 76 227 1.7 6.1 0.00 0.00 0.00 50 1006.6
20260505150116 75 33 0.9 5.2 0.00 0.00 0.00 46 1006.8
20260505124608 64 232 0.9 6.1 0.00 0.00 0.00 63 1007.8
20260505123002 63 9 0.9 5.2 0.00 0.00 0.00 64 1007.8
20260505121602 62 198 0.9 7.0 0.00 0.00 0.00 65 1007.5
20260505120003 61 203 2.6 6.1 0.00 0.00 0.00 67 1007.6
20260505114606 60 217 1.7 4.3 0.00 0.00 0.00 70 1007.5
20260505113006 58 192 0.9 2.6 0.00 0.00 0.00 74 1007.5
20260505111604 54 201 0.0 1.7 0.00 0.00 0.00 84 1007.2
20260505101602 53 201 0.9 1.7 0.00 0.00 0.00 81 1007.1
20260505100003 53 201 0.0 0.0 0.00 0.00 0.00 79 1006.9
20260505094611 54 201 0.0 0.0 0.00 0.00 0.00 78 1006.8
20260505093003 54 201 0.0 1.7 0.00 0.00 0.00 76 1006.8
20260505091603 55 201 0.0 0.0 0.00 0.00 0.00 74 1006.8
20260505090004 57 201 0.0 0.0 0.00 0.00 0.00 72 1006.6
20260505084503 57 201 0.0 1.7 0.00 0.00 0.00 71 1006.4
20260505083110 57 218 0.0 0.9 0.00 0.00 0.00 69 1006.5
20260505081504 60 218 0.0 0.9 0.00 0.00 0.00 66 1006.4
20260505080104 60 203 0.9 3.5 0.00 0.00 0.00 64 1006.5
20260505074503 60 209 0.0 3.5 0.00 0.00 0.00 66 1006.5
20260505073102 58 317 0.0 1.7 0.00 0.00 0.00 68 1006.6
20260505071502 58 208 0.0 0.0 0.00 0.00 0.00 67 1006.6
20260505064502 60 208 0.0 1.7 0.00 0.00 0.00 62 1006.6
20260505063105 60 202 0.0 2.6 0.00 0.00 0.00 62 1006.6
20260505061505 60 201 0.0 1.7 0.00 0.00 0.00 61 1006.5
20260505060105 60 207 0.9 1.7 0.00 0.00 0.00 59 1006.6
20260505054502 61 213 0.9 2.6 0.00 0.00 0.00 58 1006.4
20260505053107 61 196 0.9 4.3 0.00 0.00 0.00 57 1006.4
20260505051503 61 192 0.9 3.5 0.00 0.00 0.00 56 1006.5
20260505050128 61 200 1.7 3.5 0.00 0.00 0.00 56 1006.6
20260505041611 62 200 1.7 4.3 0.00 0.00 0.00 53 1006.5
20260505040002 62 196 1.7 6.1 0.00 0.00 0.00 52 1006.3
20260505034603 62 181 1.7 5.2 0.00 0.00 0.00 51 1006.4
20260505033003 61 192 1.7 3.5 0.00 0.00 0.00 52 1006.4
20260505031602 62 193 0.0 1.7 0.00 0.00 0.00 52 1006.5
20260505030002 61 188 0.0 2.6 0.00 0.00 0.00 52 1006.4
20260505024603 61 184 0.0 1.7 0.00 0.00 0.00 52 1006.6
20260505023002 62 174 0.0 1.7 0.00 0.00 0.00 51 1006.7
20260505021602 62 185 0.0 2.6 0.00 0.00 0.00 50 1006.7
20260505020004 63 198 0.0 2.6 0.00 0.00 0.00 49 1006.7
20260505014631 62 198 1.7 5.2 0.00 0.00 0.00 49 1006.7
20260505013002 61 200 0.0 1.7 0.00 0.00 0.00 52 1006.6
20260505011607 61 197 0.0 1.7 0.00 0.00 0.00 53 1006.6
20260505010002 62 197 0.0 0.0 0.00 0.00 0.00 51 1006.3
20260505004603 63 197 0.0 0.0 0.00 0.00 0.00 48 1006.2
20260505003003 65 197 0.0 1.7 0.00 0.00 0.00 46 1006.0
20260505001633 67 205 0.0 1.7 0.00 0.00 0.00 43 1006.0
20260505000003 68 210 0.9 6.1 0.00 0.00 0.00 41 1005.9
20260504234615 68 221 2.6 7.8 0.00 0.00 0.00 40 1005.9
20260504233002 69 207 1.7 7.8 0.00 0.00 0.00 39 1005.7
20260504231602 70 203 2.6 7.8 0.00 0.00 0.00 38 1005.6
20260504230002 70 209 2.6 11.3 0.00 0.00 0.00 37 1005.6
20260504224611 71 191 3.5 7.8 0.00 0.00 0.00 37 1005.6
20260504223002 71 194 4.3 8.7 0.00 0.00 0.00 37 1005.6
20260504221603 71 212 2.6 8.7 0.00 0.00 0.00 38 1005.7
20260504220044 72 234 0.9 7.0 0.00 0.00 0.00 37 1005.8
20260504214502 71 194 1.7 8.7 0.00 0.00 0.00 37 1005.8
20260504213148 71 219 3.5 8.7 0.00 0.00 0.00 37 1005.8